User: anonymous   Login
Location: Dos Palmas
(32.4468°N, 116.8732°W)
Time: 16:40:28
(UTC+00:00)
Language:

Meteor 1-28 Rocket - Orbit

View from above orbital plane
View from above orbital plane
View from above satellite
View from above satellite

Ground track
Ground track

The orbit data is extracted from the following two-line orbital elements,

1 10114U 77057B   21262.87550151  .00000449  00000-0  25377-4 0  9993
2 10114  97.3721  43.8267 0012013 287.8642  72.1281 15.17918736419241
Epoch (UTC): 19 September 2021 21:00:43
Eccentricity: 0.0012013
inclination: 97.3721°
perigee height: 504 km
apogee height: 520 km
right ascension of ascending node: 43.8267°
argument of perigee: 287.8642°
revolutions per day: 15.17918736
mean anomaly at epoch: 72.1281°
orbit number at epoch: 41924

The dashed part of the orbit path shows where the satellite is in the earth's shadow,  

DLR